User: anonymous   Login
Location: Unspecified
(0.0000°N, 0.0000°E)
Time: 09:19:50
(UTC+00:00)
Language:

ERS-2 - Orbit

View from above orbital plane
View from above orbital plane
View from above satellite
View from above satellite

Ground track
Ground track

The orbit data is extracted from the following two-line orbital elements,

1 23560U 95021A   18019.13791708  .00001012  00000-0  49000-4 0  9999
2 23560  98.5534  45.6719 0002443 301.5197  58.5797 15.21435363208210
Epoch (UTC): 19 January 2018 03:18:36
Eccentricity: 0.0002443
inclination: 98.5534°
perigee height: 500 km
apogee height: 503 km
right ascension of ascending node: 45.6719°
argument of perigee: 301.5197°
revolutions per day: 15.21435363
mean anomaly at epoch: 58.5797°
orbit number at epoch: 20821

The dashed part of the orbit path shows where the satellite is in the earth's shadow,  

DLR